Location: *
(32.8140°S, 174.6161°E)
Time: 17:39:46
(UTC+00:00)

Cosmos 1825 - Pass Details

Date: 10 December 2019
Orbit: 503 x 509 km, 82.5° (Epoch: 20 January)

Event Time Altitude Azimuth Distance (km) Brightness Sun altitude
Rises 14:26:16 0° 195° (SSW) 2,636 6.4 -26.0°
Reaches altitude 10° 14:28:29 10° 203° (SSW) 1,742 5.2 -25.7°
Enters shadow 14:30:01 21° 215° (SW) 1,182 4.2 -25.5°
